DECAYED
Showing default

FLOCK 4Y 24, 55020 (Decayed)

Orbit data source: Space-Track

FLOCK 4Y 24, 55020 was a payload satellite owned by Planet (US) in LEO that was launched on Tue, 03 Jan 2023 UTC via an FALCON 9 launch vehicle from the Air Force Eastern Test Range (AFETR). Payload-class satellites include a variety of spacecraft equipped with specific instruments for various scientific and technological missions. These include communications satellites like Starlink; space stations such as the ISS; scientific satellites like the Hubble; Earth observation satellites from companies like Planet Labs, Umbra, and HawkEye 360; GPS; miniature CubeSats for education and research; and military/defense satellites.

Not visible in the next 10 days
Identifier
55020, 2023-001M
Orbit
Decayed
Country
Flag of USUS
Related business
Manufacturer
Planet
Mission
Decayed Commercial Imaging
Bus & Motor
CUBESAT 3U, Unknown motor
Mass
5.7 kg wet, 5.7 kg dry
Launch date (UTC)
2023-01-03 (4 years ago)
Launch vehicle
FALCON 9
Launch site
Air Force Eastern Test Range (AFETR)
Object type
Payload
Rocket body
Debris
Shape & HBR
Box + 2 Pan, 1.0 m
Radar Cross Section
0.108 m², Medium (>0.1 m² and < 1m²)

Expand to show TLE details & history
Last TLE update: 10 months ago

TLE from 10 months ago
0 FLOCK 4Y 24
1 55020U 23001M   25263.97108166  .10609912  25035-5  83127-3 0  9996
2 55020  97.3401 342.4674 0013192 278.6479  81.3326 16.39590735152084
Epoch: 2025-09-20T23:18Z
TLE epoch observation values (Epoch: 2025-09-20T23:18:21.455Z)
Latitude
0.00001°
Longitude
-7.21832°
Altitude
168.854 km
Speed
7.806 km/s
True Right ascension
22h 49m 52s
True Declination
0° 00' 00"
Sunlit
Object was in full shadow at epoch
Visualization orbit readout
Latitude
Unknown
Longitude
Unknown
Altitude
Unknown
Speed
Unknown
Apparent Right ascension
Unknown
Apparent Declination
Unknown
Sunlit
N/A
Visualization observer readout
Local Sidereal Time
21:44:38
Azimuth
Unknown
Elevation
Unknown
Doppler factor
Unknown
Orbital elements
Apogee altitude
172.327 km
Perigee altitude
155.067 km
Semi-major axis
6,541.834 km
Eccentricity
0.00132
Inclination
97.3401°
RAAN
342.4674°
Arg. of periapsis
278.6479°
True anomaly
81.48208°
Mean anomaly
81.3326°
Eccentric anomaly
81.40734°
Mean motion
4.10198 °/min
Orbital period
87.76 mins
BSTAR
0.00083127
Loading maneuver chart data...
Computing Atmospheric mass density...

Documentation

Showing up to 5 results
|